This demonstration page uses our WeatherBlox Daily Observations layout. Learn more.

40.92945, -100.16068

Hourly Observations for December 9, 2015

Temp ( °F °C ) Dew Point ( °F °C ) Humidity (%) Winds ( mph kmh ) Pressure ( in mb ) Visibility ( mi km ) Precip ( " mm )
12:15 am 00:15 Clear 31 -0.5 28 -2.1 89 89 NW 3 6 30 1016 10 16.0934 N/A
12:35 am 00:35 Clear 31 -0.5 28 -2.1 89 89 WNW 7 11 30 1016 10 16.0934 N/A
12:55 am 00:55 Clear 31 -0.4 28 -2 89 89 WNW 7 11 30 1016 10 16.0934 N/A
1:15 am 01:15 Clear 32 -0.2 29 -1.8 89 89 WNW 7 11 29.97 1015 10 16.0934 N/A
1:35 am 01:35 Clear 32 -0.2 29 -1.7 90 90 WNW 7 11 29.97 1015 10 16.0934 N/A
1:55 am 01:55 Clear 31 -0.6 28 -2.1 90 90 WNW 3 6 30 1016 10 16.0934 N/A
2:15 am 02:15 Clear 31 -0.5 28 -2 90 90 W 6 9 29.97 1015 10 16.0934 N/A
2:35 am 02:35 Clear 30 -0.9 28 -2.3 90 90 WNW 5 7 30 1016 10 16.0934 N/A
2:55 am 02:55 Clear 29 -1.4 27 -2.6 92 92 WNW 3 6 30 1016 10 16.0934 N/A
3:15 am 03:15 Clear 30 -1.2 28 -2.5 91 91 WNW 5 7 30 1016 10 16.0934 N/A
3:35 am 03:35 Clear 29 -1.9 26 -3.1 92 92 NW 5 7 30 1016 10 16.0934 N/A
3:55 am 03:55 Clear 29 -1.7 27 -2.8 92 92 Calm 29.97 1015 10 16.0934 N/A
4:15 am 04:15 Clear 29 -1.5 27 -2.6 92 92 Calm 29.97 1015 10 16.0934 N/A
4:35 am 04:35 Clear 29 -1.6 27 -3 90 90 Calm 29.97 1015 10 16.0934 N/A
4:55 am 04:55 Clear 28 -2 26 -3.3 91 91 NW 3 6 29.97 1015 10 16.0934 N/A
5:15 am 05:15 Clear 28 -2.4 25 -3.8 90 90 NW 3 6 29.94 1014 10 16.0934 N/A
5:35 am 05:35 Clear 28 -2.1 26 -3.3 92 92 Calm 29.97 1015 10 16.0934 N/A
5:55 am 05:55 Clear 27 -2.6 25 -3.8 92 92 Calm 29.97 1015 10 16.0934 N/A
6:15 am 06:15 Clear 29 -1.9 26 -3.1 92 92 W 5 7 29.97 1015 10 16.0934 N/A
6:35 am 06:35 Clear 29 -1.9 26 -3.4 90 90 WNW 5 7 29.94 1014 10 16.0934 N/A
6:55 am 06:55 Clear 29 -1.5 27 -2.6 92 92 NW 5 7 29.97 1015 10 16.0934 N/A
7:15 am 07:15 Clear 29 -1.6 27 -2.8 92 92 Calm 29.97 1015 10 16.0934 N/A
7:35 am 07:35 Clear 29 -1.6 27 -3 90 90 NW 3 6 29.94 1014 10 16.0934 N/A
7:55 am 07:55 Sunny 30 -1.2 27 -2.6 90 90 Calm 29.91 1013 10 16.0934 N/A
8:15 am 08:15 Sunny 29 -1.8 26 -3.1 91 91 Calm 29.94 1014 10 16.0934 N/A
8:35 am 08:35 Sunny 30 -1 27 -2.6 89 89 Calm 29.91 1013 10 16.0934 N/A
8:55 am 08:55 Sunny 31 -0.3 29 -1.6 91 91 Calm 29.91 1013 10 16.0934 N/A
9:15 am 09:15 Sunny 33 0.5 31 -0.5 93 93 Calm 29.91 1013 10 16.0934 N/A
9:35 am 09:35 Sunny 36 2.3 34 1.2 93 93 WSW 5 7 29.88 1012 10 16.0934 N/A
9:55 am 09:55 Sunny 43 6.1 37 3 81 81 WSW 3 6 29.85 1011 10 16.0934 N/A
10:15 am 10:15 Sunny 48 9.1 38 3.3 67 67 WSW 7 11 29.83 1010 10 16.0934 N/A
10:35 am 10:35 Sunny 51 10.4 35 1.8 56 56 WSW 9 15 29.8 1009 10 16.0934 N/A
10:55 am 10:55 Sunny 54 12.3 35 1.7 49 49 WSW 10 17 29.77 1008 10 16.0934 N/A
11:15 am 11:15 Sunny 56 13.5 35 1.6 45 45 WSW 12 19 29.74 1007 10 16.0934 N/A
11:35 am 11:35 Sunny 58 14.2 35 1.5 42 42 WSW 12 19 29.74 1007 10 16.0934 N/A
11:55 am 11:55 Sunny 59 15 35 1.5 40 40 WSW 12 19 29.68 1005 10 16.0934 N/A
12:15 pm 12:15 Sunny 62 16.6 34 1.1 35 35 WSW 10 17 29.68 1005 10 16.0934 N/A
12:35 pm 12:35 Sunny 64 17.5 34 1 33 33 WSW 10 17 29.62 1003 10 16.0934 N/A
12:55 pm 12:55 Sunny 65 18.4 34 1.1 31 31 WSW 12 19 29.62 1003 10 16.0934 N/A
1:15 pm 13:15 Sunny 66 19 33 0.5 29 29 SW 10 17 29.62 1003 10 16.0934 N/A
1:35 pm 13:35 Sunny 67 19.6 33 0.6 28 28 WSW 9 15 29.62 1003 10 16.0934 N/A
1:55 pm 13:55 Sunny 68 20.2 33 0.3 27 27 WSW 9 15 29.56 1001 10 16.0934 N/A
2:15 pm 14:15 Sunny 68 20.1 33 0.6 27 27 SW 14 22 29.56 1001 10 16.0934 N/A
2:35 pm 14:35 Sunny 67 19.5 33 0.3 28 28 SW 13 20 29.56 1001 10 16.0934 N/A
2:55 pm 14:55 Sunny 67 19.4 33 0.7 29 29 SSW 10 17 29.56 1001 10 16.0934 N/A
3:15 pm 15:15 Sunny 66 18.7 33 0.8 30 30 SSW 9 15 29.56 1001 10 16.0934 N/A
3:35 pm 15:35 Sunny 64 18 34 1 32 32 SSW 9 15 29.56 1001 10 16.0934 N/A
3:55 pm 15:55 Sunny 64 17.6 34 1.2 33 33 SSW 8 13 29.56 1001 10 16.0934 N/A
4:15 pm 16:15 Sunny 62 16.6 35 1.5 36 36 SSW 10 17 29.56 1001 10 16.0934 N/A
4:35 pm 16:35 Sunny 59 15.2 35 1.7 40 40 SSW 8 13 29.59 1002 10 16.0934 N/A
4:55 pm 16:55 Sunny 58 14.5 35 1.5 42 42 SSW 10 17 29.59 1002 10 16.0934 N/A
5:15 pm 17:15 Clear 56 13.6 35 1.5 44 44 SSW 9 15 29.56 1001 10 16.0934 N/A
5:35 pm 17:35 Clear 56 13.5 35 1.5 44 44 SSW 9 15 29.56 1001 10 16.0934 N/A
5:55 pm 17:55 Clear 55 12.6 35 1.5 47 47 SSW 8 13 29.56 1001 10 16.0934 N/A
6:15 pm 18:15 Clear 53 11.9 34 1.3 49 49 SW 8 13 29.59 1002 10 16.0934 N/A
6:35 pm 18:35 Clear 52 11.1 36 2 54 54 SW 6 9 29.59 1002 10 16.0934 N/A
6:55 pm 18:55 Clear 53 11.8 36 2.2 52 52 SSW 5 7 29.59 1002 10 16.0934 N/A
7:15 pm 19:15 Clear 51 10.8 36 2 55 55 SW 5 7 29.59 1002 10 16.0934 N/A
7:35 pm 19:35 Clear 51 10.5 36 2.3 57 57 SW 9 15 29.56 1001 10 16.0934 N/A
7:55 pm 19:55 Clear 54 12.1 38 3.3 55 55 SW 9 15 29.56 1001 10 16.0934 N/A
8:15 pm 20:15 Clear 52 11 38 3.1 59 59 SW 3 6 29.56 1001 10 16.0934 N/A
8:35 pm 20:35 Clear 46 7.7 35 1.6 66 66 Calm 29.59 1002 10 16.0934 N/A
8:55 pm 20:55 Clear 51 10.4 37 2.6 59 59 WNW 3 6 29.56 1001 10 16.0934 N/A
9:15 pm 21:15 Clear 51 10.5 38 3.1 60 60 SSW 5 7 29.56 1001 10 16.0934 N/A
9:35 pm 21:35 Clear 50 10.1 38 3.5 64 64 SW 13 20 29.53 1000 10 16.0934 N/A
9:55 pm 21:55 Clear 53 11.9 38 3.4 56 56 WSW 9 15 29.5 999 10 16.0934 N/A
10:15 pm 22:15 Clear 55 13 37 2.7 50 50 WSW 13 20 29.5 999 10 16.0934 N/A
10:35 pm 22:35 Clear 55 12.5 36 2.3 50 50 SW 12 19 29.5 999 10 16.0934 N/A
10:55 pm 22:55 Clear 54 12.1 36 2.1 51 51 WSW 7 11 29.5 999 10 16.0934 N/A
11:15 pm 23:15 Clear 53 11.6 35 1.6 51 51 SW 7 11 29.5 999 10 16.0934 N/A
11:35 pm 23:35 Clear 54 12 34 1 47 47 WSW 8 13 29.5 999 10 16.0934 N/A
11:55 pm 23:55 Clear 53 11.5 33 0.6 47 47 WSW 7 11 29.5 999 10 16.0934 N/A

Powered by AerisWeather